Погода в Дехканабаде

Узбекистан     40°31′54″N   69°02′01″E
темп.,
°C
ветер,
м/с
пор.,
м/с
влажн.,
%
обл.,
%
осадки,
мм/ч
давл.,
гПа
погр.,
м
6 марта, сб
сб623:00+9св235042 0.0 102244
02:00+8с2253100 0.0 101830
05:00+7с125597 0.0 101625
08:00+8ссв1249100 0.0 101351
11:00+12зсз4434100 0.0 1012387
14:00+14сз3331100 0.0 1012681
17:00+13сз4637100 0.0 1012981
20:00+10сз3652100 0.0 1015215
7 марта, вс
вс723:00+9ссз3653100 0.1 1017399
02:00+6зсз3480100 1.8 1017219
05:00+6вюв3488100 4.4 1019164
08:00+7ююв2382100 0.1 1021176
11:00+9вюв1166100 0.1 1021791
14:00+11ссз116088 0.0 1020911
17:00+11с225995 0.0 1019890
20:00+9св116954 0.0 102022
8 марта, пн
пн823:00+8всв127327 0.0 101922
02:00+7св11770 0.0 101922
05:00+7всв11783 0.0 101922
08:00+8ююв2372100 0.0 102073
11:00+14юв2348100 0.0 1019561
14:00+17юв1138100 0.0 10191136
17:00+16св2240100 0.0 1019636
20:00+13св3352100 0.0 102157
9 марта, вт
вт923:00+12всв2256100 0.0 102023
02:00+11ююв1257100 0.0 101923
05:00+10юв2259100 0.0 101743
08:00+11вюв1156100 0.0 101645
11:00+16вюв1538100 0.0 1014625
14:00+19вюв5829100 0.0 1012848
17:00+19вюв4729100 0.0 1010500
20:00+16ю3436100 0.0 101163
10 марта, ср
ср1023:00+15всв1242100 0.0 101133
02:00+14вюв2243100 0.0 100923
05:00+14ююв5841100 0.0 1009152
08:00+14ююв4756100 0.1 1011233
11:00+15сз6655100 0.5 10141074
14:00+13ссз6759100 0.2 10161161
17:00+11с4672100 2.4 1019844
20:00+10св5668100 0.3 1022734